This demonstration page uses our WeatherBlox Daily Observations layout. Learn more.

Left ArrowRight Arrow

Hourly Observations for April 20, 2019

Temp ( °F °C ) Dew Point ( °F °C ) Humidity (%) Winds ( mph kmh ) Pressure ( in mb ) Visibility ( mi km ) Precip ( " mm )
12:53 am 00:53 Cloudy 46 7.8 44 6.7 93 93 WSW 7 11 29.67 1005 10 16 0.00 0.00
1:33 am 01:33 Cloudy 46 7.8 43 6.1 89 89 WSW 9 15 29.70 1006 10 16 0.00 0.03
1:53 am 01:53 Cloudy 46 7.8 44 6.7 93 93 WSW 6 9 29.67 1005 10 16 0.00 0.03
2:07 am 02:07 Cloudy 46 7.8 44 6.7 93 93 WSW 7 11 29.70 1006 10 16 0.00 0.00
2:33 am 02:33 Cloudy 46 7.8 41 5 83 83 WSW 9 15 29.70 1006 10 16 0.00 0.00
2:53 am 02:53 Cloudy 46 7.8 40 4.4 79 79 SW 8 13 29.67 1005 10 16 0.00 0.00
3:22 am 03:22 Cloudy 46 7.8 41 5 83 83 SW 13 20 29.70 1006 10 16 0.00 0.00
4:18 am 04:18 Cloudy 45 7.2 41 5 86 86 SW 8 13 29.69 1005 10 16 0.00 0.00
4:53 am 04:53 Cloudy 45 7.2 41 5 86 86 SW 8 13 29.65 1004 10 16 0.00 0.00
5:12 am 05:12 Cloudy 45 7.2 41 5 86 86 SSW 8 13 29.68 1005 10 16 0.00 0.00
5:53 am 05:53 Cloudy with Light Rain 44 6.7 43 6.1 96 96 SW 10 17 29.65 1004 9 14 0.01 0.25
6:18 am 06:18 Cloudy with Light Rain 44 6.7 42 5.6 93 93 WSW 8 13 29.68 1005 10 16 0.01 0.25
6:53 am 06:53 Cloudy with Light Rain 44 6.7 42 5.6 93 93 WSW 10 17 29.66 1004 10 16 0.03 0.76
7:22 am 07:22 Cloudy with Light Rain 43 6.1 42 5.6 97 97 SW 8 13 29.70 1006 10 16 0.00 0.03
7:53 am 07:53 Cloudy with Light Rain 44 6.7 42 5.6 93 93 SW 9 15 29.68 1005 10 16 0.01 0.25
8:00 am 08:00 Cloudy with Light Rain 44 6.7 43 6.1 96 96 SW 8 13 29.71 1006 10 16 0.00 0.03
8:53 am 08:53 Cloudy with Light Rain 44 6.7 43 6.1 96 96 SW 6 9 29.70 1006 10 16 0.00 0.03
9:53 am 09:53 Cloudy 45 7.2 44 6.7 97 97 SW 7 11 29.72 1007 10 16 0.00 0.03
10:53 am 10:53 Cloudy 46 7.8 43 6.1 89 89 W 12 19 29.75 1007 10 16 0.00 0.03
11:53 am 11:53 Cloudy 48 8.9 42 5.6 80 80 W 7 11 29.77 1008 10 16 0.00 0.00
12:25 pm 12:25 Cloudy 49 9.4 41 5 74 74 W 13 20 29.79 1009 10 16 0.00 0.00
12:53 pm 12:53 Cloudy 50 10 41 5 71 71 W 14 22 29.78 1009 10 16 0.00 0.00
1:02 pm 13:02 Cloudy with Light Rain 49 9.4 42 5.6 77 77 W 12 19 29.80 1009 10 16 0.00 0.03
1:53 pm 13:53 Cloudy with Light Rain 49 9.4 45 7.2 86 86 SW 9 15 29.79 1009 10 16 0.01 0.25
2:53 pm 14:53 Cloudy 47 8.3 43 6.1 86 86 WSW 13 20 29.81 1009 10 16 0.04 1.02
3:53 pm 15:53 Cloudy 48 8.9 43 6.1 83 83 W 10 17 29.83 1010 10 16 0.00 0.00
4:53 pm 16:53 Cloudy 50 10 44 6.7 80 80 WSW 8 13 29.85 1011 10 16 0.00 0.00
5:53 pm 17:53 Cloudy 51 10.6 44 6.7 77 77 W 7 11 29.86 1011 10 16 0.00 0.00
6:53 pm 18:53 Cloudy 50 10 45 7.2 83 83 WNW 3 6 29.88 1012 10 16 0.00 0.00
7:53 pm 19:53 Cloudy 50 10 45 7.2 83 83 WNW 3 6 29.89 1012 10 16 0.00 0.00
8:53 pm 20:53 Cloudy 49 9.4 47 8.3 93 93 N 3 6 29.91 1013 10 16 0.00 0.00
9:53 pm 21:53 Cloudy 49 9.4 47 8.3 93 93 Calm 29.94 1014 10 16 0.00 0.00
10:53 pm 22:53 Cloudy 49 9.4 46 7.8 90 90 Calm 29.96 1014 10 16 0.00 0.00
11:53 pm 23:53 Mostly Cloudy 48 8.9 46 7.8 93 93 Calm 29.96 1015 10 16 0.00 0.00

Powered by AerisWeather